User: anonymous   Login
Location: Unspecified
(0.0000°N, 0.0000°E)
Time: 17:23:37
(UTC+00:00)
Language:

ZACube-1 - Orbit

View from above orbital plane
View from above orbital plane
View from above satellite
View from above satellite

Ground track
Ground track

The orbit data is extracted from the following two-line orbital elements,

1 39417U 13066B   18145.67981397  .00000170  00000-0  27949-4 0  9992
2 39417  97.5886 175.5188 0057938 227.8532 131.7751 14.80930751243467
Epoch (UTC): 25 May 2018 16:18:55
Eccentricity: 0.0057938
inclination: 97.5886°
perigee height: 586 km
apogee height: 667 km
right ascension of ascending node: 175.5188°
argument of perigee: 227.8532°
revolutions per day: 14.80930751
mean anomaly at epoch: 131.7751°
orbit number at epoch: 24346

The dashed part of the orbit path shows where the satellite is in the earth's shadow,  

DLR